Wind_Speed
6 7 7 9 12 10 7 8 8 7 8 7 7 8 9 10 11 12 13 13 17 15 11 13 13 13 16 17 17 19 20 21 21 21 21 20 20 19 19 19 18 18 17 16 16 16 16 15 16 15 15 15 15 15 15 16 18 19 21 21 21 22 22 21 22 22 22 21 21 21 21 21 21 21 21 21 21 22 22 23 24 25 26 28 30 32
6 8 9 10 12 10 9 10 9 8 9 8 7 9 11 12 11 12 14 14 18 16 12 14 14 14 17 18 18 19 20 20 20 20 20 20 20 19 18 19 18 18 16 16 16 15 15 15 15 15 15 15 16 17 18 19 20 21 21 21 22 22 21 21 21 21 20 20 20 20 20 20 20 20 20 20 21 23 24 26 27 29 31 32 34 35
10 11 11 10 9 9 9 10 11 10 10 9 10 12 13 14 13 12 14 14 17 16 13 15 15 14 17 18 18 19 20 19 19 19 19 18 18 18 18 18 18 17 16 16 15 14 14 15 15 15 16 17 18 18 19 20 21 21 21 21 21 20 20 20 20 19 19 19 19 19 19 19 19 20 21 23 24 26 28 29 30 32 33 35 36 38
14 13 13 12 10 11 10 10 11 10 10 11 12 14 14 15 15 13 14 15 16 16 15 16 15 14 17 18 18 18 19 19 18 18 17 17 17 17 17 17 17 16 15 15 15 14 15 15 15 16 17 18 18 18 19 20 20 20 20 20 20 20 20 20 20 20 20 19 19 19 20 21 22 23 25 26 28 29 30 31 32 33 34 36 37 39
17 14 12 11 11 13 12 11 10 9 10 11 13 16 15 14 15 14 14 14 15 15 16 17 15 14 16 17 17 17 17 17 17 17 16 15 15 15 16 16 16 15 15 15 15 15 15 15 16 17 18 18 17 18 18 19 19 19 19 19 19 20 20 21 21 21 21 21 22 23 23 24 25 26 27 28 28 29 30 31 32 34 35 37 39 41
17 15 11 9 8 9 8 8 8 8 9 9 11 14 14 14 14 14 13 14 14 14 14 16 15 14 14 14 15 15 16 16 15 15 15 14 14 15 16 16 15 15 15 15 15 15 16 16 17 17 17 17 17 18 18 18 18 18 18 19 20 20 20 20 21 21 22 23 24 24 24 24 25 25 26 27 28 28 30 32 33 35 37 39 41 42
13 12 8 7 5 5 6 6 6 8 8 8 10 12 11 13 14 14 13 14 14 13 13 13 13 13 12 12 12 13 13 14 13 14 14 14 14 15 15 16 15 15 15 15 16 16 16 16 16 16 16 17 17 17 17 17 17 18 19 20 20 20 21 21 22 22 22 22 22 22 23 24 24 25 26 27 29 30 32 34 36 37 39 40 42 44
10 11 8 5 5 6 9 9 7 8 7 6 10 10 10 12 14 13 12 13 14 13 12 10 10 12 11 9 11 11 11 12 13 13 14 13 13 14 15 15 15 15 15 15 16 16 16 16 15 15 15 16 16 16 16 17 18 19 20 21 21 21 22 22 22 22 22 22 22 23 24 24 25 26 28 29 31 33 34 36 37 39 40 41 43 45
10 13 10 6 7 10 10 9 6 6 5 5 8 11 11 12 14 13 12 13 13 11 10 9 8 10 10 8 9 10 10 12 12 13 13 13 12 13 14 15 15 14 14 15 15 15 15 15 14 14 14 15 16 16 17 17 18 20 20 21 21 21 22 22 22 22 23 23 24 24 25 26 27 28 30 31 33 35 36 37 38 39 41 42 44 46
9 12 10 7 8 10 10 8 7 6 6 4 6 12 14 14 14 13 12 12 12 11 10 9 8 9 9 8 8 9 10 11 12 12 12 12 11 11 13 14 14 14 14 14 14 14 14 14 13 13 13 14 15 16 17 18 19 20 20 21 21 21 21 22 23 24 24 24 25 25 26 28 29 30 31 33 34 35 36 37 38 39 41 43 45 47
8 11 9 6 6 8 8 8 9 10 11 9 3 9 11 13 14 13 12 11 12 10 9 9 8 8 9 9 8 8 10 11 11 11 11 11 10 11 13 13 13 13 13 14 14 13 13 13 13 13 13 14 15 15 16 17 18 19 20 20 20 21 22 23 24 24 24 25 25 26 27 28 29 30 31 32 33 35 36 37 38 40 42 44 46 48
8 11 8 4 5 8 7 8 8 8 11 12 7 10 10 13 14 12 12 12 12 9 7 8 8 7 9 9 8 7 9 11 12 11 10 9 10 11 13 13 13 13 13 13 13 13 13 12 12 12 13 14 14 14 15 17 19 19 20 21 22 23 24 24 24 24 24 26 27 28 28 29 29 30 31 32 34 35 36 37 39 41 43 45 47 49
8 10 7 4 6 8 5 6 7 5 8 9 10 14 12 12 11 10 11 11 10 8 6 6 6 7 8 9 8 7 8 12 12 12 10 9 10 11 12 12 11 11 11 12 12 12 12 11 11 11 12 13 14 14 15 18 20 21 22 23 24 25 25 24 24 24 25 27 28 29 29 29 30 31 32 33 35 36 37 39 41 43 45 47 49 50
8 8 5 4 5 8 6 5 7 7 7 8 9 12 10 8 9 8 7 7 7 7 5 5 5 5 7 8 7 7 8 12 13 12 11 10 10 10 9 9 9 9 10 10 11 11 10 10 10 11 12 13 14 14 16 18 21 22 24 25 25 25 25 24 24 25 26 28 29 29 29 30 30 32 33 34 35 37 38 40 42 45 47 48 50 51
6 4 2 5 5 6 6 7 9 8 8 8 7 8 7 6 6 6 6 4 4 6 5 5 5 3 5 7 7 7 9 11 12 12 11 10 9 8 7 8 7 8 9 9 9 10 9 10 11 12 13 14 15 16 18 21 23 24 25 25 25 25 25 24 25 26 27 28 29 29 29 30 31 33 34 35 36 38 40 42 44 46 48 49 51 52
7 6 3 3 5 3 5 7 8 8 8 8 5 5 6 4 3 3 4 3 4 5 5 5 4 3 5 6 6 7 8 9 10 10 9 8 8 7 7 8 7 7 8 8 8 9 9 10 11 12 13 15 17 19 21 22 23 24 24 24 24 25 24 24 25 26 27 28 28 29 29 31 32 33 34 36 37 39 41 43 45 47 48 50 52 53
7 7 7 3 5 5 4 6 7 7 7 6 4 5 4 2 1 1 3 4 3 5 4 3 3 3 4 5 5 6 7 6 7 7 6 6 7 7 7 7 7 7 7 7 7 8 8 9 11 12 14 16 18 20 20 21 21 22 23 24 24 24 24 24 25 26 27 28 28 29 30 31 32 34 35 37 38 40 42 44 46 47 49 51 52 54
11 10 8 7 4 6 2 3 4 5 5 5 3 3 3 1 0 1 3 4 3 4 4 3 3 2 3 4 4 5 5 4 3 3 4 5 6 6 6 7 7 7 7 7 7 7 8 9 11 13 15 15 16 17 18 19 20 21 22 23 23 23 23 24 25 26 27 28 28 29 30 31 33 34 36 37 39 41 43 44 46 47 49 51 52 54
13 13 9 10 8 6 2 1 1 2 2 3 2 2 1 0 1 1 2 3 3 4 4 4 5 5 3 3 2 3 2 1 1 2 4 4 4 5 5 6 7 7 7 7 6 6 7 9 10 11 13 13 14 15 17 18 20 21 22 22 23 23 23 24 25 27 27 27 28 29 31 32 34 35 36 38 40 41 42 44 45 47 48 51 52 54
12 14 13 13 12 7 3 4 4 3 2 3 4 4 2 2 1 1 1 1 3 3 4 4 5 6 5 2 1 1 0 1 1 2 3 4 4 4 5 6 7 7 6 6 6 6 6 8 9 10 11 12 14 15 18 19 20 21 22 22 22 23 23 24 26 27 27 28 29 30 31 33 34 36 37 39 40 41 42 43 45 47 48 50 52 54
12 15 16 15 13 11 9 8 7 8 8 7 5 7 6 3 2 1 2 1 2 2 3 3 4 6 6 3 1 1 1 2 3 3 4 4 4 4 5 6 6 6 6 6 7 6 7 8 9 11 12 14 15 17 18 19 20 21 22 22 23 23 24 25 26 27 27 28 29 30 32 33 35 37 38 39 40 41 42 43 45 46 48 50 51 53
12 15 17 16 14 15 15 12 10 11 11 10 6 5 6 6 5 3 1 1 1 1 2 3 4 4 4 4 2 1 1 2 4 3 3 4 5 5 6 7 7 7 7 7 7 6 7 8 10 11 13 14 16 17 19 19 20 21 22 22 23 23 24 25 26 26 27 28 30 31 32 34 35 37 38 39 40 41 42 43 45 46 48 50 51 53
11 13 16 17 15 15 16 15 14 11 10 10 8 6 7 7 6 5 3 3 1 0 1 2 3 3 3 3 3 2 2 3 3 3 4 5 6 6 7 7 7 7 7 7 6 5 6 8 10 11 12 14 15 17 18 19 20 21 22 22 23 23 24 25 26 27 28 29 30 31 33 34 36 37 38 39 40 41 42 43 44 45 47 49 51 52
13 14 15 16 14 13 14 15 15 11 9 9 10 10 11 9 6 4 4 3 2 2 1 1 2 2 2 3 3 4 3 2 3 4 4 5 6 7 7 7 6 6 6 6 5 4 5 7 9 10 11 12 14 16 18 19 20 20 21 22 22 23 24 25 26 27 28 29 30 31 33 34 36 37 38 39 40 41 42 43 44 45 47 49 50 51
14 15 15 14 14 13 14 16 15 11 9 11 12 10 11 10 5 3 4 3 2 3 1 1 3 3 3 3 4 5 4 2 2 3 4 6 7 8 8 8 6 6 5 5 4 3 4 6 7 8 10 12 13 15 17 18 19 20 21 21 22 23 24 25 27 28 29 30 30 32 33 34 36 37 38 39 40 41 42 43 43 45 47 48 49 50
12 14 14 14 14 14 15 16 16 13 10 13 15 12 10 8 4 3 5 5 5 5 3 3 3 4 4 4 5 6 4 2 2 3 5 7 8 9 9 8 7 5 5 4 3 3 4 5 6 8 9 11 13 14 16 17 18 19 20 21 22 23 25 26 27 28 29 30 31 32 33 34 35 36 38 39 40 41 42 43 43 45 46 48 49 50
14 16 15 14 14 14 15 17 17 15 12 12 13 13 11 10 7 6 6 6 6 6 5 5 4 3 3 4 5 5 3 2 2 4 5 7 8 9 9 9 8 5 5 4 3 3 4 5 6 8 10 11 12 14 15 17 18 19 20 21 22 24 25 26 27 28 29 30 31 32 33 34 35 36 38 39 40 41 42 43 43 44 46 47 48 49
17 17 16 14 13 14 17 18 17 15 14 13 12 13 13 12 10 10 9 7 6 5 6 6 5 5 4 4 4 3 2 2 3 3 5 7 8 9 10 10 8 5 4 4 4 4 5 5 6 8 10 11 12 14 15 16 18 19 20 21 22 24 25 26 27 28 30 30 31 32 33 33 34 36 37 39 40 41 42 43 43 44 45 46 48 48
16 16 15 13 13 14 17 18 17 16 15 15 14 14 14 14 13 13 11 8 6 6 8 7 5 6 6 4 4 4 3 3 3 4 5 6 8 9 10 11 8 4 4 4 4 4 5 5 6 8 9 10 12 13 15 16 17 18 20 21 22 24 25 26 27 28 30 31 31 32 33 33 34 35 37 38 40 41 42 42 43 44 45 46 47 48
15 14 13 14 15 16 17 17 17 16 15 14 14 15 15 15 15 14 12 10 8 8 9 7 5 7 7 5 4 5 3 3 3 4 6 6 7 8 10 10 7 3 3 4 4 5 5 6 7 8 9 10 12 13 14 16 17 18 19 21 22 24 25 26 27 28 30 31 32 32 32 33 34 35 36 38 39 40 41 42 43 44 45 45 46 46
15 13 13 13 15 16 16 16 17 17 16 16 17 18 18 18 16 13 11 10 9 9 10 9 7 7 7 5 5 4 3 2 3 5 6 6 6 7 10 10 6 3 4 4 4 5 5 6 7 8 9 11 12 13 14 16 17 18 19 21 22 24 25 26 27 28 29 31 32 32 33 33 33 34 35 37 38 40 41 42 43 45 45 45 45 45
14 12 11 12 14 16 18 18 18 19 18 18 19 19 19 19 17 12 10 9 9 9 10 8 7 8 8 7 5 4 3 3 3 5 5 4 4 6 10 9 5 4 5 4 4 5 6 7 8 8 9 11 12 13 14 15 17 18 19 21 23 24 25 25 27 28 30 31 32 32 33 33 33 34 35 36 38 39 41 42 43 44 45 44 44 45
13 12 12 13 14 17 19 19 19 19 19 18 18 17 18 18 16 12 10 9 9 10 10 8 8 8 8 8 6 6 5 4 4 5 5 2 3 7 9 7 5 5 5 4 4 5 6 7 8 9 10 11 12 13 14 15 16 18 19 21 22 23 24 26 27 29 30 31 32 32 33 33 33 34 34 35 37 38 40 41 42 42 43 43 44 44
13 12 13 14 15 16 17 18 18 17 17 17 17 16 16 16 14 12 11 10 10 10 9 8 9 10 9 10 10 9 8 6 4 6 5 2 4 7 8 7 6 6 6 5 5 6 6 7 8 9 10 11 12 13 14 15 16 18 19 21 22 23 25 26 28 29 30 31 32 32 32 33 33 33 34 35 36 37 39 40 41 41 42 42 42 43
13 13 14 15 15 16 16 16 17 16 16 16 16 16 15 14 13 12 12 12 12 11 9 8 10 12 11 11 11 11 9 7 5 6 5 3 5 8 7 7 7 7 6 5 6 6 7 8 8 9 10 11 12 13 14 15 16 17 19 21 22 24 25 27 29 30 31 32 32 32 32 33 33 33 33 34 35 36 38 39 40 40 40 41 41 41
16 16 16 15 16 17 17 17 17 17 17 17 16 16 15 14 13 12 12 13 13 11 8 9 11 12 12 12 12 11 10 8 6 7 6 5 7 8 7 8 8 7 7 7 7 8 8 8 9 9 10 12 13 14 15 15 16 18 19 21 22 24 26 28 29 31 32 33 33 33 32 32 33 33 33 34 34 35 37 38 39 39 40 40 40 40
18 18 17 16 17 17 18 18 18 18 17 17 17 17 16 15 14 13 14 14 12 10 9 10 11 12 12 13 12 11 10 8 6 7 7 8 8 8 7 8 8 8 8 8 9 9 9 9 9 9 11 13 14 15 15 16 17 18 20 21 23 25 27 28 30 31 32 33 33 33 33 32 32 33 33 33 34 35 36 37 38 39 39 40 40 40
19 19 18 18 19 19 19 19 19 18 16 16 17 18 17 16 15 14 14 14 12 9 9 10 10 10 11 12 11 11 10 8 7 8 9 9 9 8 8 8 9 9 9 9 9 9 9 9 9 10 12 14 15 15 16 17 18 19 20 22 23 25 27 29 30 32 32 33 33 33 33 32 32 32 33 33 34 34 35 36 36 37 38 39 40 41
23 22 21 21 20 20 19 19 18 18 17 16 17 17 17 15 15 15 14 13 12 11 11 10 9 9 10 10 10 11 10 8 9 10 10 9 9 9 9 9 10 10 10 10 10 10 10 10 10 11 13 15 16 16 17 18 19 20 21 22 24 26 28 29 31 32 32 33 33 33 33 32 32 32 32 33 33 34 34 35 36 36 38 39 40 41
24 23 22 21 20 20 19 19 18 18 18 17 18 17 16 16 15 14 14 12 12 13 12 10 9 9 9 10 10 10 9 9 10 11 10 9 9 9 10 10 10 11 11 11 11 11 11 11 11 12 14 15 17 18 18 19 20 21 22 23 24 26 28 30 31 32 32 33 33 33 33 32 32 32 32 32 33 34 34 35 36 36 37 38 40 41
24 23 21 20 20 21 20 19 19 19 19 18 17 17 17 16 15 15 14 13 13 13 12 11 10 9 9 10 10 9 8 10 12 11 9 8 9 10 10 10 11 11 11 11 11 11 12 12 13 13 15 16 18 19 20 20 21 22 23 24 25 27 28 30 31 32 32 32 32 33 33 32 32 31 31 32 33 34 34 35 36 36 37 38 39 40
25 23 22 21 21 21 21 20 20 20 19 17 17 16 16 16 16 16 16 14 13 12 12 12 10 9 10 11 9 8 9 11 12 11 9 9 10 10 10 11 11 11 11 12 12 12 13 13 14 15 16 17 18 20 21 21 22 22 23 25 26 27 29 30 31 32 32 32 32 32 32 32 32 31 31 32 33 34 35 35 36 37 37 38 39 40
25 24 23 21 20 21 22 22 22 20 17 17 17 16 16 16 17 17 16 15 13 13 12 11 9 9 10 11 9 8 9 11 11 11 10 10 11 11 11 11 12 12 12 12 13 13 14 14 15 16 17 18 19 20 21 22 23 23 24 25 26 28 29 30 32 32 32 32 32 32 32 32 32 31 31 32 33 34 35 35 36 36 37 38 38 39
25 24 22 21 21 23 23 23 22 19 17 17 17 16 16 17 17 17 16 15 14 13 13 12 10 10 10 11 10 9 10 10 11 11 11 11 11 12 12 12 12 12 12 13 14 14 15 15 16 17 18 19 20 21 22 23 23 24 25 26 27 28 30 31 32 33 32 32 32 32 32 32 32 31 31 32 33 34 34 35 36 36 37 37 37 38
22 22 21 21 23 24 24 23 22 20 19 19 19 18 18 18 17 16 16 15 14 14 14 13 12 11 11 11 11 11 11 10 11 11 12 12 13 13 14 13 13 13 13 14 14 15 16 16 17 19 20 21 21 22 23 24 24 24 26 27 28 29 30 32 33 33 33 33 33 33 33 32 32 32 32 32 33 34 34 35 36 36 36 36 37 37
23 22 22 22 23 23 23 23 22 20 20 21 21 20 20 19 17 16 15 15 14 14 13 13 12 13 13 12 12 12 12 12 12 12 13 13 14 14 14 14 14 14 14 15 15 16 17 18 19 20 21 22 23 23 24 24 24 25 26 27 29 30 31 33 33 33 33 33 33 33 33 33 32 32 32 33 33 34 34 35 35 36 36 36 36 36
25 24 23 22 22 22 22 22 22 22 21 21 21 21 21 19 17 16 15 14 14 13 13 13 13 13 13 13 13 13 13 13 13 14 14 14 14 15 15 15 15 15 15 16 16 17 18 19 20 21 22 23 24 24 24 24 25 26 27 28 30 31 32 34 34 33 33 33 33 33 33 33 33 33 33 33 33 34 34 35 35 35 36 36 36 35
26 25 24 23 23 23 22 23 23 23 21 20 19 20 20 19 18 17 16 16 16 15 14 13 13 14 14 14 14 14 14 15 15 15 15 15 15 15 15 16 16 16 16 16 17 18 19 20 21 22 23 24 25 25 25 25 26 27 28 29 30 32 33 34 34 34 34 34 34 33 33 33 33 33 33 33 33 34 34 35 35 35 36 35 35 34
26 25 25 25 24 24 24 24 23 22 21 18 17 18 19 20 20 19 18 18 17 16 15 14 14 14 15 15 15 15 15 16 16 16 16 16 16 16 16 16 16 16 17 17 18 19 20 21 22 23 24 25 25 25 25 26 27 28 29 30 32 33 34 35 35 34 34 34 34 34 33 33 33 33 33 33 34 34 34 35 35 36 36 35 35 34
26 26 26 26 26 26 25 24 23 22 21 19 18 18 20 22 22 20 18 18 17 17 16 15 15 15 15 16 17 17 17 17 17 17 17 17 17 17 17 17 17 17 18 18 19 20 21 22 23 24 24 24 25 25 26 27 28 29 30 32 33 34 35 35 35 35 34 34 34 34 34 34 34 34 34 34 34 34 35 35 35 36 36 35 35 34
27 27 27 27 27 27 27 26 25 23 21 20 20 20 21 22 22 21 20 19 18 18 18 17 16 15 16 17 18 17 17 18 19 19 19 19 19 19 19 19 19 19 20 20 20 21 22 23 24 24 24 24 25 26 27 28 29 31 32 33 34 35 36 36 36 35 35 35 35 35 34 34 34 34 34 34 34 35 35 35 36 37 36 35 34 34
Wind_Direction
98 106 96 96 110 115 106 101 97 105 114 120 126 112 107 109 106 106 107 106 102 98 100 100 100 104 103 104 103 101 99 96 97 99 99 101 102 101 100 99 97 93 89 87 84 80 77 73 71 67 63 59 55 52 50 47 42 39 36 32 30 28 26 23 20 17 14 12 8 5 3 359 357 354 350 347 344 341 339 337 336 334 333 332 331 330
110 110 101 97 111 118 107 107 113 112 114 129 134 112 102 101 100 103 104 104 103 101 104 103 101 103 103 103 102 100 99 98 99 99 99 100 101 99 96 94 93 91 89 86 81 76 72 68 65 61 59 57 54 50 46 43 39 37 34 31 28 26 24 22 19 15 13 10 7 3 0 357 354 351 348 345 343 341 341 340 339 337 336 335 333 332
94 92 93 92 108 122 111 115 125 120 113 128 130 110 102 100 96 96 100 102 102 103 108 104 100 102 102 101 102 101 101 101 102 101 100 99 99 96 93 92 90 87 85 81 77 73 69 65 62 60 58 55 51 47 43 40 38 35 33 30 27 24 22 21 18 16 14 10 6 3 360 357 356 354 352 350 348 347 345 342 340 338 337 335 334 333
88 83 86 83 93 114 121 123 125 121 120 127 121 107 103 104 102 100 100 99 99 105 109 103 100 102 102 102 103 103 102 103 103 101 100 99 97 95 93 91 88 85 82 79 75 70 66 63 61 59 57 54 50 46 43 40 37 33 30 28 25 23 21 19 17 16 13 9 6 5 3 2 360 358 356 353 351 348 344 341 339 337 336 335 335 334
92 85 87 84 92 109 125 133 128 129 134 130 114 106 105 102 101 101 100 99 99 103 105 101 101 102 103 104 105 105 105 105 104 103 101 100 98 97 96 93 89 86 82 77 73 68 65 62 59 57 55 53 49 45 42 39 36 33 28 25 23 22 20 17 15 13 10 8 6 6 5 3 1 359 356 353 350 346 342 340 339 338 337 337 336 335
95 93 94 93 97 108 122 134 135 135 133 121 105 106 110 106 104 105 104 102 101 100 100 99 101 104 104 105 105 106 107 106 106 105 104 103 102 101 99 94 89 85 80 76 73 68 64 61 57 56 54 51 48 43 39 37 34 31 27 24 21 20 18 16 13 11 9 8 6 5 4 2 0 358 355 351 347 344 343 342 341 340 339 338 337 335
87 91 97 103 104 109 103 96 109 120 117 114 110 107 108 110 113 113 107 103 100 97 95 97 101 102 100 102 102 102 103 104 104 103 102 103 103 101 97 91 85 81 77 73 70 67 63 61 58 55 53 50 47 43 38 34 29 27 24 22 19 17 15 14 12 10 8 7 5 4 2 1 359 356 353 350 348 346 345 344 343 341 340 338 337 336
81 75 66 77 91 101 96 90 106 117 105 108 115 111 112 116 116 115 112 105 101 96 93 95 100 97 92 95 97 95 96 96 95 95 96 97 97 96 92 88 84 80 76 71 68 67 64 62 59 54 52 49 45 43 38 33 27 23 21 19 17 14 12 12 10 7 6 5 5 3 1 0 358 356 353 351 349 348 346 345 343 341 340 338 337 336
77 66 46 46 79 88 87 90 104 112 94 92 111 116 120 120 114 111 112 110 105 99 94 90 91 91 88 88 88 89 90 91 92 92 93 92 91 91 89 86 85 81 77 73 68 67 65 63 60 54 49 45 42 39 34 30 25 21 19 17 15 12 10 9 7 5 4 4 3 2 360 359 357 355 353 351 350 348 346 344 343 341 340 339 338 337
60 69 48 40 77 78 68 65 63 64 50 43 115 121 117 118 116 112 114 115 110 104 100 96 89 88 89 87 84 88 91 90 92 93 93 94 93 93 90 87 86 82 77 73 69 68 66 64 62 56 50 44 38 34 30 27 24 19 16 14 12 10 9 8 7 5 4 3 2 0 359 358 357 355 353 351 349 347 345 344 342 341 341 340 340 339
53 74 49 29 77 73 56 48 43 45 31 13 106 130 122 123 118 112 115 116 110 105 103 101 96 91 89 87 85 90 93 89 87 90 91 95 98 96 91 87 84 81 77 74 70 68 66 62 59 55 50 44 37 31 27 24 22 19 14 11 10 9 9 9 7 4 3 2 1 360 359 358 356 354 352 350 348 346 345 344 343 343 342 342 341 340
75 71 38 16 78 70 58 49 34 35 28 23 67 98 112 127 118 109 111 108 107 107 103 100 98 95 90 85 83 83 88 88 86 86 85 87 92 92 89 87 84 80 76 73 70 66 62 57 52 49 46 43 38 30 24 20 19 17 13 10 9 9 9 8 6 3 2 1 360 359 358 356 355 353 351 349 347 346 345 345 345 345 344 344 343 341
106 73 37 17 58 57 55 54 34 23 24 30 70 84 94 116 111 104 105 99 98 97 93 98 94 98 97 89 85 81 87 92 89 85 79 72 72 73 75 78 78 79 76 74 71 67 63 58 51 47 42 41 38 30 21 18 16 14 11 10 9 8 8 7 5 2 1 1 359 358 356 354 353 352 350 349 348 347 346 347 347 346 346 345 344 343
120 81 38 359 30 51 52 53 42 34 40 44 72 85 89 105 104 107 108 97 96 91 86 95 91 98 101 94 94 97 98 98 93 86 80 74 69 65 68 73 74 76 73 70 69 65 63 57 49 43 37 35 36 30 22 17 14 11 10 10 8 7 7 5 3 2 1 1 359 356 354 353 353 352 351 349 348 348 348 349 349 348 348 347 345 344
160 137 62 11 18 56 52 51 54 48 53 54 66 89 97 101 95 106 114 110 110 98 79 79 85 99 98 92 99 105 104 102 98 92 85 82 81 79 82 82 78 75 69 65 63 59 54 47 42 38 30 27 27 25 21 18 13 9 8 8 6 5 5 4 3 2 1 0 357 355 353 353 353 352 351 350 349 350 351 351 350 349 349 348 347 346
192 205 191 29 356 13 37 46 60 53 45 46 64 101 103 91 67 86 103 99 106 93 65 63 81 98 99 98 105 107 106 104 99 94 92 93 92 85 81 78 72 69 65 61 56 51 44 37 35 36 29 22 20 19 18 16 11 7 5 5 5 4 4 3 2 2 1 359 356 354 354 354 354 352 351 351 351 352 352 352 351 350 349 349 348 347
191 218 204 174 307 318 42 69 74 60 45 46 73 106 105 80 47 106 94 80 84 79 62 70 95 108 110 112 117 114 111 103 93 92 94 95 90 81 74 67 59 53 50 50 48 44 38 29 27 31 29 23 19 16 15 12 8 5 4 4 5 4 3 3 2 3 1 358 355 354 355 355 354 353 352 352 353 353 353 353 352 350 349 350 349 349
189 207 190 158 236 281 352 73 66 50 58 67 76 111 128 131 95 134 108 86 59 40 42 56 49 51 97 113 120 118 113 101 86 81 76 71 66 63 61 55 48 41 35 33 35 37 36 29 23 25 27 24 19 13 10 9 6 5 5 6 5 3 3 3 3 4 1 357 355 355 356 356 355 354 353 354 354 354 354 353 352 351 350 351 351 352
199 202 175 158 191 223 240 204 220 358 69 113 162 189 185 266 82 103 99 96 72 32 15 23 23 15 39 96 118 119 113 98 70 47 44 37 32 40 43 42 38 30 23 19 22 29 31 30 24 22 25 24 18 12 7 7 6 6 7 7 5 4 4 4 4 4 0 356 356 357 357 357 356 355 355 355 355 355 354 353 352 352 352 352 353 354
201 192 175 180 193 189 209 238 215 213 217 202 212 213 242 308 25 67 10 53 81 41 359 3 16 7 8 38 117 143 201 311 343 10 10 354 358 22 27 31 30 19 10 6 10 18 21 24 23 19 20 18 15 12 8 6 6 7 8 7 5 4 4 4 5 3 359 357 357 358 358 358 357 356 356 356 356 355 354 353 353 353 353 354 355 356
195 188 182 191 195 186 204 232 212 196 207 221 221 200 202 242 259 266 324 357 84 54 21 28 25 7 2 356 340 162 208 314 330 344 345 326 335 9 13 20 22 7 358 359 3 8 6 12 18 16 15 13 10 10 7 5 6 7 8 7 5 4 4 5 5 2 359 358 358 359 359 359 358 357 357 357 356 355 354 354 354 354 355 356 356 358
194 193 192 198 201 193 197 209 208 209 211 209 212 199 193 216 233 236 263 230 136 56 64 75 53 24 10 356 355 128 222 324 330 330 331 318 329 359 4 9 10 357 354 355 356 359 355 1 12 15 13 10 7 7 6 5 6 8 9 7 4 4 5 6 5 2 360 359 359 359 360 360 358 358 358 357 356 355 355 355 355 355 356 357 358 359
199 196 198 204 210 203 201 205 205 213 216 202 200 199 198 217 228 226 237 236 218 164 107 76 53 34 22 6 0 11 355 340 325 318 324 320 332 353 359 1 359 349 350 347 345 355 355 356 6 12 12 7 5 5 4 5 7 8 8 6 4 5 5 5 4 2 1 0 360 360 0 0 359 358 358 357 356 356 356 356 356 357 358 359 360 1
202 192 200 212 219 213 213 217 212 210 220 224 221 209 206 220 229 222 231 231 207 202 199 15 3 13 22 6 359 5 3 341 304 309 323 324 335 349 352 350 347 342 340 333 337 356 359 356 3 9 9 6 5 5 5 5 8 9 8 6 5 5 5 5 3 2 1 1 360 0 1 1 360 359 358 357 357 357 357 358 358 358 359 0 1 2
214 203 205 214 225 224 221 225 224 216 220 239 247 236 224 226 216 210 242 248 236 232 238 328 334 345 0 0 0 359 349 312 298 324 331 330 336 343 340 335 335 334 325 319 332 356 359 0 3 4 6 5 5 6 6 7 9 10 9 6 5 5 5 4 3 2 1 0 360 1 1 1 360 359 358 357 358 358 359 359 359 360 1 1 2 3
227 220 215 215 224 226 218 220 228 228 227 242 251 254 254 251 234 237 260 258 258 269 291 315 321 335 351 0 359 352 334 296 325 346 336 331 334 335 329 324 324 323 311 310 329 348 352 358 358 359 2 4 6 7 8 9 11 10 9 6 5 5 4 3 1 1 0 360 360 0 1 1 360 358 357 358 358 359 360 360 0 1 1 1 2 3
230 228 223 221 224 220 212 217 227 228 230 243 249 250 256 261 259 256 254 246 253 274 291 295 298 316 349 356 345 340 322 308 348 351 333 330 328 323 319 316 318 314 301 307 334 347 344 348 350 355 359 1 4 7 9 10 11 10 8 5 4 4 3 1 0 360 359 359 359 0 1 0 359 358 358 358 359 360 0 1 1 2 2 2 3 4
230 230 225 225 228 219 211 217 222 223 229 240 242 242 247 252 254 257 258 254 254 270 279 281 287 297 310 319 321 326 331 344 358 340 326 325 319 315 314 312 313 309 293 307 336 336 329 339 347 353 358 0 3 6 8 9 9 7 5 3 2 2 0 359 359 359 358 357 358 359 360 359 358 357 357 358 359 0 1 1 2 2 2 2 3 4
228 229 226 227 233 224 216 219 221 225 234 238 240 244 247 247 248 252 257 261 261 266 273 276 283 287 288 294 308 316 331 354 353 322 317 317 312 312 309 304 307 305 292 307 324 313 314 334 346 349 353 358 1 4 5 6 5 4 2 0 360 359 358 358 358 357 357 356 357 358 358 358 357 357 357 357 358 0 1 1 2 3 3 3 4 4
227 228 224 226 229 222 218 220 222 227 233 236 241 246 244 243 245 247 253 261 260 261 269 276 282 282 281 285 294 298 313 343 329 306 303 302 304 305 297 295 304 308 295 301 302 299 312 330 340 345 349 354 358 360 360 0 360 359 359 357 356 356 355 356 356 356 355 355 355 356 356 356 356 356 355 356 358 359 360 1 2 3 3 3 4 3
232 227 222 224 227 223 220 220 220 222 224 227 235 240 240 243 246 245 248 251 250 254 265 275 283 281 277 274 272 273 292 321 304 288 288 293 302 294 284 289 303 301 285 283 284 296 308 320 333 341 344 349 354 355 355 356 356 355 355 354 354 353 353 353 354 354 354 354 354 354 354 354 354 354 354 355 356 358 359 0 2 3 3 3 3 3
238 232 224 222 225 224 222 222 222 222 222 226 234 238 240 243 245 244 241 241 247 258 268 278 284 281 278 272 262 259 283 305 291 278 282 296 301 279 277 288 300 281 271 271 279 292 299 311 327 337 341 346 350 350 350 351 351 352 352 352 351 351 351 351 352 352 352 352 352 352 352 353 353 352 353 353 355 356 358 360 2 3 2 3 3 3
237 230 222 221 224 225 224 225 228 228 227 231 238 242 243 243 243 241 238 242 253 262 270 281 284 281 285 286 281 279 287 295 284 273 276 289 268 261 269 284 284 266 264 268 275 281 290 307 321 331 340 343 343 344 345 346 347 349 350 350 349 349 349 349 350 351 350 350 350 350 350 351 351 351 352 352 353 355 357 359 1 2 2 2 2 3
232 226 223 223 228 231 230 229 230 229 228 231 237 243 244 243 243 243 245 252 257 261 270 283 286 288 294 293 288 284 285 290 282 269 270 264 243 250 259 265 260 254 255 256 261 268 281 300 313 326 336 337 336 338 340 341 343 346 347 347 347 347 348 348 348 349 348 348 348 348 348 348 349 349 350 351 351 353 356 358 360 0 1 2 3 3
226 226 227 226 228 233 235 235 233 227 223 226 233 238 241 244 246 248 252 254 255 259 263 266 273 282 287 285 281 279 284 292 281 268 270 259 241 245 247 246 245 246 245 245 249 257 272 292 308 323 329 329 330 333 335 338 340 341 343 344 345 346 346 347 347 347 347 347 347 346 346 346 347 348 348 349 350 351 354 356 358 359 1 2 3 3
226 229 231 228 226 228 230 232 232 229 226 227 231 235 239 243 245 247 251 254 255 256 253 246 254 266 275 278 279 280 287 291 280 268 267 253 247 248 241 236 238 239 238 240 244 253 271 291 307 320 323 324 328 331 332 334 335 336 339 341 343 344 345 346 346 346 346 346 346 345 344 344 345 346 347 348 348 350 352 354 357 358 359 1 2 3
230 232 234 233 230 228 228 229 229 230 230 231 234 237 240 243 245 246 249 254 255 250 243 240 244 254 263 270 276 280 284 283 271 262 258 251 251 250 239 233 235 235 235 238 243 254 274 292 306 316 320 321 325 327 328 329 329 331 335 338 340 343 344 345 346 346 346 345 345 344 343 342 343 344 345 346 347 348 350 352 354 356 358 360 1 2
233 235 238 237 234 230 229 229 229 230 230 231 235 238 240 243 248 249 250 256 260 255 248 246 246 252 259 266 273 277 276 271 260 254 252 253 255 251 242 237 237 236 236 238 244 257 274 291 305 314 317 319 322 324 324 324 325 328 331 335 338 341 343 344 345 345 345 345 344 343 342 341 341 343 344 344 345 346 348 349 352 354 356 358 359 359
236 239 241 241 239 237 235 233 233 231 228 229 234 238 239 239 243 248 252 256 261 260 258 258 257 257 262 268 271 272 271 268 260 254 254 257 259 254 246 240 238 240 240 241 247 260 276 291 305 312 315 318 320 321 321 321 322 325 329 333 336 339 341 343 345 345 344 343 343 342 341 339 340 341 342 343 344 345 346 347 349 351 353 356 357 357
237 239 241 242 243 244 241 238 238 235 230 230 234 237 240 239 239 243 246 247 250 255 259 263 264 264 267 270 269 270 271 267 259 256 257 261 261 254 249 244 242 244 244 245 252 265 279 293 303 310 314 316 318 319 320 320 321 323 327 331 334 337 340 342 344 344 343 342 341 341 339 338 338 338 340 341 342 343 344 345 347 349 351 354 354 355
236 236 240 242 242 242 240 239 240 238 234 232 234 237 241 243 243 245 245 244 249 256 262 266 267 269 271 271 269 271 268 261 258 259 259 259 260 257 255 255 253 252 252 254 259 270 281 293 302 308 313 315 317 319 319 319 321 323 325 329 332 335 338 341 342 342 341 340 339 339 338 337 336 337 338 339 340 342 343 344 346 347 350 352 353 353
237 238 243 242 238 238 238 236 237 238 236 236 239 240 242 246 248 249 250 251 254 258 262 266 271 275 273 271 272 271 264 259 260 260 258 256 258 260 261 263 263 262 262 262 265 273 283 293 301 306 310 314 316 318 318 319 320 321 323 327 330 333 336 339 339 339 339 338 338 337 337 336 336 336 336 337 339 341 343 343 344 346 348 350 352 352
238 239 240 235 232 237 239 236 236 238 238 240 243 244 244 247 250 251 255 259 260 261 263 268 276 280 278 277 277 272 264 263 263 263 262 262 264 266 267 266 267 267 266 266 269 276 285 293 299 304 308 312 316 317 317 317 317 319 322 325 328 331 334 336 337 337 336 336 336 336 336 336 335 334 335 336 338 340 342 343 343 345 347 349 350 351
237 238 235 231 232 238 240 239 239 241 242 243 245 247 248 249 250 254 259 264 267 268 270 273 275 277 278 281 282 274 268 267 266 265 268 270 271 273 271 270 271 271 270 271 274 279 285 292 297 302 307 312 314 315 314 314 315 317 321 323 326 329 332 333 335 335 334 334 335 334 334 335 334 333 334 335 337 338 340 341 343 344 346 348 349 350
235 235 233 232 234 237 239 240 241 240 242 244 244 244 246 248 251 254 257 262 267 271 271 272 272 272 274 278 278 272 266 264 263 263 265 268 271 273 273 274 275 275 274 275 276 279 284 290 295 300 306 310 312 311 311 312 313 316 319 322 325 327 329 331 332 333 333 333 333 333 333 333 333 332 333 334 336 337 338 340 342 343 344 346 348 349
232 231 230 232 235 238 240 243 243 241 242 244 245 244 246 247 250 254 257 260 265 269 271 273 273 270 270 272 272 269 264 262 262 262 263 266 269 273 276 277 277 277 277 276 277 280 284 289 295 300 305 308 308 308 308 310 312 315 318 320 323 325 327 329 330 331 331 331 331 332 332 332 332 332 332 333 335 336 337 338 340 342 343 344 346 347
234 233 233 236 239 241 243 245 245 245 245 246 246 246 248 250 251 254 256 257 258 262 270 277 277 274 271 271 271 270 267 266 264 264 265 267 270 274 276 276 277 277 277 277 278 281 285 290 296 300 303 305 305 305 307 308 311 314 316 319 321 323 326 328 329 329 329 329 329 330 330 330 330 330 331 332 333 334 335 337 338 340 341 343 344 344
233 234 236 239 241 243 246 249 249 249 249 250 249 250 252 253 251 248 249 251 253 256 263 271 275 274 272 270 269 269 269 268 267 268 269 271 273 275 276 276 276 276 276 278 280 283 287 292 296 299 300 301 302 303 305 308 310 313 315 318 319 321 324 326 327 327 328 328 328 328 329 328 328 329 330 331 332 333 334 336 337 339 340 340 341 341
231 232 233 236 239 243 247 250 251 252 253 254 254 252 252 251 248 246 248 251 254 258 262 266 269 271 271 271 271 269 267 267 268 269 271 273 275 276 276 277 277 277 278 280 282 285 289 293 295 297 298 299 300 302 304 307 310 312 314 316 318 320 322 324 324 325 326 326 326 326 326 326 327 327 328 329 330 332 333 335 336 337 338 338 337 337
231 232 233 234 237 241 243 245 248 253 256 254 251 250 251 251 251 250 249 251 255 259 260 261 262 265 268 270 271 271 269 269 269 270 272 273 275 276 277 278 279 280 281 283 285 287 290 292 294 295 296 297 299 301 304 306 309 311 313 315 316 318 320 321 322 323 323 324 324 324 324 325 325 326 327 328 329 330 332 333 334 335 336 335 334 334
231 233 234 234 235 239 241 241 244 248 250 248 244 243 246 249 252 252 251 253 257 259 259 259 259 262 265 268 271 272 272 271 270 270 271 273 274 276 277 278 280 281 282 284 286 288 290 291 292 293 294 296 298 301 303 306 308 310 311 313 314 316 318 319 320 321 321 322 322 322 322 323 324 325 325 326 328 329 330 332 333 333 334 333 332 332
Height
5836 5836 5835 5836 5836 5836 5836 5837 5837 5837 5837 5836 5836 5836 5836 5835 5836 5835 5835 5834 5833 5833 5835 5834 5834 5833 5832 5832 5831 5831 5830 5830 5830 5830 5831 5831 5831 5832 5832 5831 5831 5831 5831 5831 5831 5831 5830 5830 5829 5829 5829 5829 5828 5828 5827 5826 5825 5824 5822 5821 5820 5819 5818 5816 5815 5813 5812 5811 5809 5808 5806 5804 5802 5801 5799 5797 5795 5794 5792 5790 5787 5785 5783 5780 5777 5774
5837 5837 5836 5836 5837 5837 5837 5838 5838 5838 5838 5838 5838 5838 5836 5836 5836 5836 5835 5835 5834 5835 5836 5835 5835 5835 5833 5833 5833 5832 5831 5831 5832 5832 5832 5833 5833 5833 5833 5832 5832 5832 5832 5832 5832 5831 5831 5830 5830 5830 5829 5829 5828 5828 5827 5826 5824 5823 5823 5822 5820 5819 5818 5817 5815 5814 5813 5811 5810 5808 5806 5804 5803 5801 5799 5797 5795 5793 5790 5788 5785 5783 5780 5777 5774 5771
5838 5837 5837 5837 5837 5838 5839 5839 5839 5839 5839 5839 5839 5838 5836 5836 5836 5836 5836 5836 5835 5836 5838 5837 5836 5837 5835 5834 5834 5834 5833 5833 5834 5834 5834 5834 5834 5834 5833 5833 5833 5833 5833 5833 5832 5832 5832 5831 5830 5830 5830 5829 5828 5827 5826 5826 5825 5824 5823 5822 5821 5820 5818 5817 5816 5815 5813 5812 5810 5809 5807 5805 5803 5801 5799 5796 5794 5791 5788 5786 5783 5780 5778 5775 5772 5768
5838 5838 5838 5838 5839 5839 5840 5840 5840 5840 5840 5840 5839 5837 5837 5836 5836 5837 5838 5837 5837 5837 5838 5837 5838 5838 5837 5836 5836 5836 5835 5835 5835 5835 5835 5835 5835 5835 5834 5834 5834 5834 5834 5833 5833 5833 5832 5831 5831 5830 5830 5829 5828 5827 5827 5826 5825 5824 5823 5822 5821 5820 5819 5817 5816 5815 5813 5812 5810 5809 5807 5804 5802 5799 5797 5794 5791 5789 5786 5784 5782 5779 5776 5773 5770 5766
5838 5839 5839 5840 5840 5840 5841 5841 5841 5841 5841 5841 5840 5838 5838 5838 5838 5838 5839 5839 5839 5839 5839 5838 5839 5839 5838 5838 5837 5837 5837 5836 5836 5836 5836 5836 5836 5836 5835 5835 5835 5834 5834 5834 5833 5833 5832 5832 5831 5830 5830 5829 5829 5828 5827 5827 5826 5825 5824 5823 5822 5820 5819 5817 5816 5814 5813 5811 5809 5807 5804 5802 5800 5797 5795 5792 5790 5788 5786 5784 5781 5778 5775 5771 5767 5764
5839 5840 5840 5841 5842 5841 5841 5842 5842 5843 5843 5842 5841 5839 5839 5838 5839 5840 5840 5840 5840 5841 5841 5840 5840 5840 5840 5839 5839 5838 5838 5838 5838 5838 5837 5837 5837 5837 5836 5836 5835 5835 5834 5834 5833 5833 5832 5832 5831 5831 5830 5830 5829 5829 5828 5827 5827 5826 5825 5823 5822 5821 5819 5817 5816 5814 5812 5810 5807 5805 5803 5801 5799 5797 5795 5793 5791 5789 5786 5783 5780 5776 5772 5769 5765 5761
5840 5840 5841 5842 5843 5842 5843 5843 5843 5844 5844 5843 5842 5841 5841 5840 5840 5841 5841 5841 5842 5842 5842 5842 5842 5841 5841 5841 5840 5840 5839 5839 5839 5839 5839 5839 5838 5838 5837 5836 5836 5835 5835 5834 5834 5833 5833 5832 5832 5831 5831 5831 5830 5829 5829 5828 5827 5826 5825 5823 5822 5820 5819 5817 5815 5813 5812 5810 5808 5806 5803 5801 5799 5797 5795 5793 5790 5787 5784 5781 5777 5773 5770 5766 5762 5758
5842 5841 5842 5842 5843 5844 5844 5844 5844 5844 5844 5843 5843 5842 5842 5841 5841 5842 5842 5842 5842 5843 5843 5843 5843 5842 5842 5842 5842 5841 5840 5840 5840 5839 5839 5839 5839 5838 5837 5837 5836 5836 5835 5835 5834 5834 5833 5833 5832 5832 5831 5831 5831 5830 5830 5829 5827 5826 5825 5823 5822 5820 5818 5816 5815 5813 5812 5810 5808 5805 5803 5801 5799 5796 5794 5791 5788 5785 5782 5778 5775 5771 5768 5764 5760 5755
5844 5842 5842 5843 5844 5845 5845 5845 5845 5845 5844 5844 5844 5843 5843 5843 5843 5843 5843 5843 5843 5843 5844 5844 5844 5842 5842 5843 5843 5842 5841 5841 5840 5840 5840 5840 5839 5839 5838 5837 5837 5836 5836 5836 5835 5835 5834 5834 5833 5833 5832 5832 5831 5831 5830 5829 5827 5826 5824 5823 5821 5819 5818 5816 5815 5813 5811 5809 5807 5804 5802 5800 5797 5795 5792 5789 5786 5783 5780 5777 5773 5770 5766 5762 5757 5752
5845 5844 5844 5844 5844 5845 5845 5845 5845 5845 5844 5844 5844 5844 5844 5845 5845 5844 5844 5844 5843 5844 5844 5844 5844 5843 5843 5843 5843 5843 5842 5842 5841 5841 5841 5840 5840 5839 5839 5838 5838 5837 5837 5836 5836 5835 5835 5835 5834 5834 5833 5832 5831 5830 5829 5828 5827 5826 5824 5823 5821 5819 5818 5816 5814 5812 5810 5808 5806 5804 5801 5799 5796 5793 5791 5788 5785 5782 5779 5776 5772 5769 5764 5760 5755 5750
5846 5845 5845 5845 5845 5845 5845 5845 5845 5845 5845 5844 5843 5843 5844 5845 5845 5844 5845 5845 5844 5844 5845 5844 5844 5844 5844 5844 5844 5844 5843 5842 5842 5842 5841 5841 5841 5840 5839 5839 5838 5838 5838 5837 5837 5836 5836 5835 5835 5834 5834 5833 5832 5831 5829 5828 5827 5826 5824 5823 5821 5819 5817 5815 5813 5811 5809 5807 5805 5803 5801 5798 5795 5793 5790 5788 5785 5782 5779 5775 5771 5767 5762 5758 5753 5747
5847 5847 5846 5845 5845 5845 5846 5846 5846 5846 5846 5845 5843 5842 5843 5844 5845 5845 5846 5845 5845 5845 5845 5845 5845 5844 5844 5844 5844 5844 5844 5843 5842 5842 5842 5842 5841 5841 5840 5840 5839 5839 5839 5838 5838 5837 5836 5836 5835 5835 5834 5833 5832 5831 5830 5828 5827 5826 5824 5822 5820 5818 5816 5814 5813 5811 5809 5807 5804 5802 5800 5797 5795 5793 5790 5787 5784 5781 5777 5774 5769 5765 5760 5755 5750 5745
5847 5847 5847 5846 5845 5845 5847 5848 5847 5847 5847 5846 5845 5844 5844 5845 5845 5845 5846 5846 5846 5846 5846 5845 5845 5845 5844 5844 5844 5845 5844 5843 5843 5842 5842 5842 5841 5840 5840 5840 5840 5839 5839 5839 5838 5837 5837 5836 5836 5835 5835 5834 5833 5831 5829 5828 5826 5825 5823 5821 5819 5817 5815 5814 5812 5810 5808 5806 5803 5801 5799 5797 5794 5792 5789 5786 5783 5779 5776 5772 5767 5763 5758 5753 5748 5742
5846 5847 5846 5845 5845 5846 5849 5849 5848 5848 5848 5847 5846 5845 5846 5846 5846 5846 5846 5847 5847 5846 5846 5846 5845 5845 5844 5844 5844 5845 5845 5843 5843 5843 5843 5842 5842 5841 5841 5841 5840 5840 5839 5839 5838 5838 5837 5837 5836 5835 5834 5834 5833 5831 5830 5827 5826 5824 5822 5820 5818 5817 5815 5814 5812 5810 5807 5805 5803 5801 5798 5796 5793 5790 5787 5784 5781 5778 5774 5769 5765 5760 5755 5750 5745 5740
5846 5846 5846 5845 5845 5847 5849 5849 5849 5849 5848 5847 5847 5847 5847 5847 5847 5847 5847 5847 5847 5846 5846 5846 5845 5845 5845 5844 5844 5845 5844 5844 5843 5843 5843 5843 5843 5844 5843 5842 5841 5840 5839 5839 5838 5838 5837 5837 5836 5835 5834 5833 5832 5831 5829 5826 5824 5823 5821 5820 5818 5817 5815 5813 5811 5809 5807 5805 5802 5800 5798 5795 5792 5789 5786 5783 5780 5776 5771 5767 5763 5758 5753 5748 5743 5737
5845 5846 5846 5846 5846 5847 5849 5849 5849 5849 5848 5847 5847 5848 5848 5848 5848 5848 5848 5848 5847 5846 5846 5845 5845 5845 5845 5844 5844 5844 5844 5844 5844 5844 5844 5844 5845 5844 5844 5843 5841 5840 5840 5839 5838 5838 5837 5836 5836 5835 5833 5832 5830 5829 5827 5826 5824 5823 5821 5820 5818 5817 5815 5813 5811 5809 5806 5804 5802 5800 5797 5794 5791 5788 5785 5781 5778 5774 5770 5765 5761 5756 5751 5746 5741 5734
5846 5846 5846 5847 5846 5847 5848 5849 5849 5848 5848 5848 5848 5848 5848 5848 5848 5848 5849 5848 5847 5846 5846 5846 5846 5846 5845 5844 5844 5844 5844 5844 5844 5844 5844 5844 5844 5844 5843 5842 5841 5840 5840 5839 5838 5838 5837 5836 5835 5835 5833 5831 5830 5829 5828 5827 5825 5824 5822 5820 5818 5817 5815 5813 5810 5808 5806 5804 5802 5799 5796 5793 5790 5787 5784 5780 5776 5772 5768 5764 5759 5755 5750 5745 5739 5733
5846 5846 5847 5847 5847 5847 5848 5849 5849 5848 5848 5848 5848 5848 5848 5848 5848 5848 5848 5848 5848 5847 5847 5847 5847 5846 5845 5845 5845 5844 5844 5844 5844 5844 5844 5843 5843 5843 5842 5842 5841 5840 5840 5839 5839 5838 5838 5836 5835 5834 5833 5832 5831 5830 5829 5828 5826 5824 5822 5820 5818 5816 5814 5812 5810 5808 5805 5804 5801 5798 5795 5792 5789 5786 5783 5779 5775 5771 5767 5763 5759 5754 5749 5743 5737 5731
5845 5846 5847 5847 5847 5848 5848 5848 5849 5849 5848 5848 5848 5848 5848 5848 5848 5848 5848 5848 5848 5848 5847 5847 5847 5846 5845 5845 5845 5845 5844 5844 5844 5844 5843 5843 5843 5842 5842 5842 5841 5840 5840 5839 5839 5838 5838 5837 5835 5834 5834 5833 5832 5831 5829 5828 5826 5824 5822 5820 5818 5816 5814 5812 5810 5807 5805 5803 5801 5798 5795 5791 5788 5785 5782 5778 5774 5770 5766 5762 5758 5753 5748 5742 5736 5730
5844 5845 5846 5846 5846 5847 5847 5847 5848 5848 5848 5848 5848 5848 5849 5849 5848 5848 5848 5848 5848 5848 5848 5847 5846 5846 5845 5845 5845 5845 5845 5845 5845 5844 5843 5843 5843 5842 5842 5842 5841 5841 5841 5840 5839 5838 5838 5837 5836 5835 5834 5834 5833 5831 5829 5827 5825 5823 5821 5820 5818 5816 5814 5812 5809 5807 5805 5803 5800 5797 5794 5790 5787 5784 5781 5777 5773 5769 5766 5762 5757 5752 5747 5741 5735 5729
5843 5844 5845 5845 5845 5846 5846 5846 5847 5848 5848 5847 5848 5848 5849 5848 5848 5847 5847 5847 5848 5848 5848 5847 5846 5846 5845 5845 5845 5845 5845 5845 5845 5844 5843 5843 5843 5842 5842 5842 5841 5841 5841 5840 5839 5838 5837 5837 5836 5835 5834 5833 5832 5830 5829 5827 5825 5823 5821 5819 5818 5816 5814 5811 5809 5807 5805 5802 5799 5796 5793 5790 5787 5783 5780 5776 5773 5769 5765 5761 5756 5751 5746 5740 5734 5728
5842 5843 5844 5844 5844 5845 5845 5846 5846 5847 5847 5847 5847 5848 5848 5847 5847 5846 5847 5847 5847 5847 5847 5846 5846 5846 5845 5845 5845 5845 5845 5845 5844 5844 5843 5843 5843 5842 5842 5841 5841 5841 5840 5839 5838 5838 5837 5836 5836 5835 5833 5832 5831 5830 5828 5827 5825 5822 5821 5819 5817 5815 5813 5811 5809 5807 5804 5802 5799 5796 5792 5789 5786 5783 5779 5776 5772 5769 5764 5760 5755 5750 5745 5740 5734 5727
5842 5843 5843 5843 5843 5844 5845 5846 5846 5846 5847 5847 5846 5846 5846 5846 5846 5846 5846 5846 5846 5846 5846 5845 5845 5846 5845 5845 5844 5844 5844 5844 5844 5843 5843 5843 5842 5842 5841 5841 5841 5840 5840 5839 5838 5838 5837 5836 5835 5834 5833 5832 5831 5829 5828 5826 5824 5822 5820 5819 5817 5815 5813 5811 5809 5807 5804 5801 5798 5795 5792 5789 5786 5782 5779 5775 5772 5768 5764 5760 5755 5750 5744 5739 5733 5727
5841 5842 5843 5843 5843 5844 5846 5845 5845 5845 5846 5846 5846 5845 5845 5845 5845 5845 5845 5846 5846 5846 5845 5845 5845 5845 5845 5844 5844 5844 5844 5844 5844 5843 5843 5843 5842 5841 5841 5841 5840 5840 5839 5839 5838 5838 5837 5836 5835 5834 5834 5833 5831 5829 5828 5826 5824 5822 5821 5819 5817 5815 5813 5811 5809 5806 5804 5801 5798 5795 5792 5788 5785 5782 5779 5775 5772 5768 5764 5759 5754 5749 5744 5738 5733 5727
5840 5841 5842 5842 5843 5844 5844 5844 5844 5845 5845 5845 5845 5845 5845 5844 5844 5845 5845 5845 5845 5845 5845 5844 5844 5843 5843 5843 5843 5842 5843 5843 5843 5843 5843 5841 5840 5840 5840 5840 5840 5839 5839 5838 5838 5838 5837 5836 5835 5835 5834 5832 5831 5829 5828 5826 5824 5822 5821 5819 5817 5815 5813 5811 5808 5806 5803 5801 5798 5794 5791 5788 5785 5782 5779 5775 5771 5767 5763 5759 5754 5749 5743 5738 5733 5728
5838 5839 5840 5841 5841 5842 5843 5844 5844 5844 5845 5845 5845 5845 5845 5844 5844 5844 5844 5844 5844 5844 5844 5844 5843 5843 5842 5842 5842 5842 5842 5842 5842 5842 5841 5840 5839 5839 5839 5839 5839 5839 5838 5838 5837 5837 5836 5835 5835 5834 5833 5832 5831 5829 5828 5826 5824 5822 5821 5819 5817 5815 5813 5810 5808 5806 5803 5800 5797 5794 5791 5788 5785 5782 5779 5775 5771 5767 5763 5758 5754 5749 5743 5739 5733 5728
5836 5837 5838 5839 5840 5840 5841 5842 5843 5843 5844 5844 5844 5844 5844 5844 5843 5843 5843 5843 5843 5843 5843 5843 5843 5842 5842 5842 5841 5841 5841 5841 5841 5841 5840 5839 5839 5839 5838 5838 5837 5837 5837 5836 5836 5835 5835 5835 5835 5834 5833 5831 5830 5829 5827 5825 5824 5822 5820 5818 5816 5814 5812 5810 5808 5805 5802 5800 5797 5794 5791 5788 5785 5782 5779 5775 5771 5767 5762 5758 5753 5749 5744 5739 5733 5728
5834 5835 5836 5838 5838 5839 5840 5840 5841 5842 5843 5843 5843 5843 5843 5843 5842 5842 5842 5842 5842 5842 5842 5842 5842 5842 5842 5841 5841 5840 5840 5841 5840 5840 5839 5838 5838 5838 5837 5836 5836 5836 5836 5835 5835 5835 5835 5834 5834 5833 5832 5831 5829 5828 5827 5825 5823 5822 5820 5818 5816 5814 5812 5810 5807 5805 5802 5799 5797 5794 5791 5788 5785 5782 5778 5775 5771 5766 5762 5758 5753 5749 5744 5739 5734 5729
5833 5833 5835 5836 5837 5837 5838 5838 5839 5840 5840 5841 5841 5842 5841 5841 5841 5841 5841 5842 5841 5841 5841 5842 5842 5841 5840 5841 5840 5839 5839 5840 5839 5838 5838 5837 5837 5837 5836 5835 5835 5835 5835 5834 5834 5834 5834 5834 5834 5833 5831 5830 5829 5828 5826 5825 5823 5821 5820 5818 5816 5814 5812 5809 5807 5804 5802 5799 5796 5793 5791 5788 5785 5781 5778 5774 5770 5766 5762 5758 5753 5748 5744 5739 5734 5729
5831 5832 5833 5834 5835 5836 5836 5837 5838 5838 5838 5839 5840 5840 5840 5840 5840 5840 5840 5841 5840 5840 5840 5841 5841 5840 5839 5839 5839 5838 5839 5839 5838 5837 5836 5836 5836 5835 5834 5834 5834 5834 5834 5834 5834 5834 5834 5833 5833 5832 5831 5830 5829 5827 5826 5824 5823 5821 5819 5817 5816 5813 5811 5809 5806 5804 5801 5798 5796 5793 5790 5787 5784 5781 5778 5774 5770 5766 5762 5758 5753 5748 5744 5739 5735 5730
5830 5831 5831 5832 5833 5834 5834 5835 5835 5836 5836 5837 5837 5837 5838 5838 5838 5839 5839 5839 5839 5839 5839 5840 5840 5839 5839 5838 5838 5838 5838 5838 5837 5836 5835 5835 5835 5834 5833 5832 5833 5833 5833 5833 5834 5833 5833 5833 5832 5831 5830 5829 5828 5827 5825 5824 5822 5821 5819 5817 5815 5813 5811 5808 5806 5803 5800 5798 5795 5793 5790 5787 5784 5781 5778 5774 5770 5766 5762 5758 5753 5748 5744 5740 5736 5731
5828 5829 5830 5831 5831 5832 5832 5833 5833 5833 5834 5834 5834 5835 5836 5836 5837 5837 5838 5838 5838 5838 5838 5838 5839 5838 5838 5838 5837 5837 5837 5837 5836 5835 5834 5834 5834 5832 5831 5831 5832 5832 5832 5833 5833 5833 5832 5832 5831 5830 5829 5828 5827 5826 5825 5823 5822 5820 5818 5817 5815 5812 5810 5808 5805 5803 5800 5797 5795 5792 5790 5787 5783 5780 5777 5774 5770 5766 5762 5757 5753 5748 5744 5740 5736 5732
5826 5827 5828 5829 5829 5830 5830 5831 5831 5832 5832 5833 5833 5834 5834 5835 5836 5836 5836 5837 5837 5836 5836 5837 5837 5837 5836 5836 5836 5835 5835 5835 5835 5833 5833 5833 5832 5831 5830 5830 5831 5831 5832 5832 5832 5832 5831 5831 5830 5829 5828 5827 5826 5825 5824 5823 5821 5820 5818 5816 5814 5812 5810 5807 5805 5802 5800 5797 5795 5792 5789 5786 5783 5780 5777 5773 5770 5766 5762 5757 5753 5749 5745 5741 5737 5732
5825 5826 5826 5827 5827 5828 5829 5829 5830 5830 5831 5831 5832 5832 5833 5833 5834 5835 5835 5835 5835 5835 5834 5835 5835 5835 5835 5834 5834 5834 5834 5834 5834 5832 5832 5832 5831 5829 5829 5830 5830 5831 5831 5831 5831 5831 5831 5830 5829 5828 5827 5827 5826 5825 5823 5822 5821 5819 5817 5815 5813 5811 5809 5807 5804 5802 5799 5797 5794 5791 5788 5786 5782 5779 5776 5773 5769 5766 5762 5757 5753 5749 5745 5741 5737 5733
5824 5824 5825 5825 5826 5827 5828 5828 5829 5829 5829 5829 5830 5830 5831 5832 5832 5833 5833 5833 5833 5833 5833 5834 5834 5833 5833 5833 5833 5833 5833 5833 5832 5831 5831 5830 5829 5828 5829 5829 5829 5830 5830 5830 5830 5830 5830 5829 5829 5828 5827 5826 5825 5824 5823 5821 5820 5818 5817 5815 5813 5810 5808 5806 5803 5801 5799 5796 5793 5791 5788 5785 5782 5779 5776 5772 5769 5765 5761 5758 5754 5750 5746 5742 5738 5734
5822 5822 5823 5824 5824 5825 5826 5826 5827 5827 5828 5828 5828 5828 5829 5830 5830 5831 5831 5831 5832 5832 5833 5833 5833 5832 5832 5832 5832 5832 5832 5831 5831 5830 5829 5829 5828 5828 5829 5829 5828 5828 5829 5829 5830 5829 5829 5828 5828 5827 5826 5825 5824 5823 5822 5820 5819 5817 5816 5814 5812 5810 5807 5805 5803 5800 5798 5795 5792 5790 5787 5784 5781 5778 5775 5772 5768 5765 5761 5757 5754 5750 5746 5742 5738 5734
5820 5820 5821 5822 5822 5823 5823 5824 5825 5825 5826 5826 5827 5827 5828 5828 5829 5829 5829 5830 5830 5832 5832 5832 5831 5831 5831 5830 5830 5830 5830 5830 5829 5829 5828 5828 5828 5828 5828 5828 5827 5828 5828 5828 5828 5828 5828 5827 5826 5826 5825 5824 5823 5822 5821 5820 5818 5817 5815 5813 5811 5809 5806 5804 5802 5799 5797 5794 5791 5789 5786 5783 5780 5777 5774 5771 5768 5764 5761 5757 5754 5750 5747 5743 5739 5735
5818 5818 5819 5820 5820 5821 5821 5822 5823 5824 5825 5825 5825 5825 5826 5827 5827 5827 5828 5828 5829 5829 5830 5829 5830 5829 5828 5828 5828 5828 5828 5828 5828 5827 5827 5827 5827 5827 5827 5826 5827 5827 5827 5827 5827 5827 5826 5826 5825 5824 5824 5823 5822 5821 5820 5819 5817 5815 5814 5812 5810 5808 5806 5803 5801 5798 5796 5793 5790 5788 5785 5782 5779 5776 5773 5770 5767 5764 5761 5757 5754 5751 5747 5743 5740 5736
5815 5816 5817 5818 5818 5819 5819 5820 5821 5822 5823 5824 5824 5824 5825 5825 5826 5826 5826 5827 5827 5827 5827 5827 5827 5827 5827 5826 5826 5826 5826 5826 5826 5825 5825 5826 5826 5825 5825 5826 5826 5826 5826 5826 5826 5825 5825 5824 5824 5823 5823 5822 5821 5820 5819 5817 5816 5814 5812 5810 5808 5807 5804 5802 5800 5797 5795 5792 5789 5787 5784 5781 5778 5776 5773 5770 5767 5763 5760 5757 5754 5751 5747 5744 5740 5736
5813 5814 5815 5816 5816 5817 5818 5818 5819 5820 5821 5821 5822 5822 5823 5824 5824 5824 5825 5825 5825 5825 5825 5825 5825 5826 5825 5825 5824 5824 5824 5824 5824 5823 5824 5824 5824 5824 5825 5825 5825 5825 5825 5825 5824 5824 5823 5823 5823 5822 5822 5821 5820 5819 5817 5816 5814 5813 5811 5809 5807 5805 5803 5801 5799 5796 5793 5791 5788 5786 5783 5780 5777 5774 5772 5769 5766 5763 5759 5756 5753 5750 5747 5743 5740 5736
5809 5811 5812 5813 5814 5814 5815 5816 5816 5817 5818 5819 5820 5821 5821 5822 5822 5823 5823 5824 5824 5823 5824 5824 5824 5824 5824 5823 5823 5823 5823 5822 5822 5822 5823 5823 5823 5823 5823 5824 5824 5823 5823 5823 5823 5823 5822 5822 5821 5821 5820 5819 5818 5817 5816 5814 5813 5811 5809 5807 5806 5804 5802 5799 5797 5795 5792 5789 5787 5784 5782 5779 5776 5773 5770 5767 5764 5761 5758 5755 5752 5749 5746 5742 5739 5736
5807 5808 5810 5811 5811 5812 5812 5813 5814 5814 5816 5818 5818 5819 5819 5820 5820 5820 5821 5821 5822 5822 5822 5822 5822 5822 5822 5822 5822 5822 5822 5821 5821 5821 5822 5822 5822 5822 5822 5822 5822 5822 5822 5822 5822 5821 5821 5820 5820 5819 5819 5818 5816 5815 5814 5812 5811 5809 5808 5806 5804 5802 5800 5798 5796 5793 5791 5788 5785 5782 5780 5777 5774 5771 5769 5766 5763 5760 5757 5754 5751 5748 5745 5741 5738 5735
5804 5805 5807 5808 5809 5810 5810 5811 5811 5812 5814 5816 5816 5817 5817 5818 5818 5818 5819 5819 5820 5820 5820 5820 5821 5821 5820 5820 5821 5821 5820 5820 5820 5820 5821 5821 5821 5821 5821 5821 5820 5820 5820 5820 5820 5820 5819 5819 5818 5818 5817 5816 5815 5813 5812 5810 5809 5808 5806 5804 5802 5800 5798 5796 5794 5792 5789 5786 5784 5781 5778 5775 5772 5769 5767 5764 5761 5758 5755 5752 5749 5747 5744 5740 5737 5734
5801 5802 5804 5806 5807 5807 5808 5808 5809 5811 5812 5813 5814 5815 5815 5815 5815 5816 5817 5817 5818 5818 5818 5818 5818 5819 5819 5819 5819 5819 5819 5819 5819 5819 5819 5819 5819 5820 5820 5819 5819 5819 5819 5819 5819 5818 5818 5817 5817 5816 5815 5814 5812 5811 5810 5809 5807 5806 5804 5802 5800 5798 5796 5794 5792 5790 5787 5784 5782 5779 5776 5773 5771 5768 5765 5762 5760 5757 5754 5751 5748 5745 5742 5739 5736 5733
5798 5800 5802 5804 5804 5805 5805 5806 5807 5808 5809 5810 5811 5812 5812 5813 5813 5814 5815 5815 5816 5816 5816 5816 5816 5816 5816 5816 5817 5817 5817 5817 5817 5817 5817 5818 5818 5818 5818 5818 5818 5817 5817 5817 5817 5816 5816 5815 5815 5814 5813 5811 5810 5809 5808 5807 5805 5804 5802 5800 5798 5796 5794 5792 5790 5788 5785 5782 5780 5777 5774 5771 5769 5766 5763 5761 5758 5755 5752 5750 5747 5744 5741 5738 5735 5732
5796 5798 5799 5800 5801 5802 5803 5803 5804 5806 5806 5807 5808 5809 5809 5810 5811 5812 5813 5813 5814 5814 5814 5814 5814 5814 5814 5814 5815 5815 5815 5815 5815 5816 5816 5816 5816 5816 5816 5816 5816 5816 5815 5815 5815 5814 5814 5813 5812 5811 5810 5809 5808 5807 5806 5804 5803 5801 5800 5798 5796 5794 5792 5790 5788 5786 5783 5780 5778 5775 5772 5769 5767 5764 5761 5759 5756 5754 5751 5748 5746 5743 5740 5737 5734 5731
5793 5795 5796 5797 5798 5799 5800 5800 5801 5802 5804 5805 5806 5806 5807 5808 5810 5810 5811 5811 5811 5811 5812 5812 5812 5812 5812 5812 5813 5813 5813 5813 5813 5813 5813 5813 5813 5813 5813 5813 5813 5813 5813 5813 5813 5812 5812 5811 5810 5809 5808 5807 5806 5805 5803 5802 5801 5799 5797 5796 5794 5792 5790 5788 5786 5783 5781 5779 5776 5773 5770 5767 5764 5762 5760 5757 5755 5752 5749 5747 5745 5742 5739 5736 5733 5730
5790 5791 5792 5793 5794 5796 5797 5798 5798 5800 5801 5803 5804 5804 5805 5806 5807 5807 5807 5808 5809 5809 5810 5810 5810 5810 5809 5810 5810 5810 5811 5811 5811 5811 5811 5811 5811 5811 5811 5811 5811 5811 5811 5810 5810 5810 5809 5809 5808 5807 5806 5805 5804 5802 5801 5799 5798 5796 5795 5793 5791 5790 5788 5786 5783 5781 5779 5776 5774 5771 5768 5765 5762 5760 5758 5755 5753 5750 5748 5745 5743 5740 5738 5735 5732 5729
5786 5788 5789 5790 5791 5792 5794 5794 5795 5797 5799 5801 5802 5802 5802 5802 5803 5804 5805 5806 5806 5807 5808 5808 5808 5807 5807 5807 5807 5808 5808 5808 5808 5808 5808 5809 5809 5809 5809 5809 5809 5809 5808 5808 5808 5808 5807 5806 5805 5804 5803 5802 5801 5800 5798 5797 5795 5793 5792 5790 5789 5787 5785 5783 5781 5779 5776 5774 5771 5769 5766 5764 5761 5758 5756 5753 5751 5749 5746 5744 5741 5739 5736 5733 5730 5728
5782 5784 5785 5787 5788 5789 5790 5792 5792 5794 5796 5798 5799 5799 5799 5799 5800 5801 5802 5803 5804 5804 5805 5805 5806 5805 5805 5805 5805 5805 5806 5806 5806 5806 5806 5806 5806 5807 5807 5807 5807 5806 5806 5806 5806 5805 5805 5804 5803 5802 5801 5799 5798 5797 5795 5794 5792 5791 5789 5788 5786 5784 5782 5780 5778 5776 5774 5771 5769 5766 5763 5761 5759 5756 5753 5751 5749 5747 5744 5742 5739 5737 5734 5731 5728 5726
5779 5780 5781 5783 5785 5786 5787 5788 5789 5791 5792 5794 5795 5796 5796 5796 5797 5798 5799 5800 5801 5801 5802 5802 5803 5803 5803 5803 5803 5803 5804 5804 5804 5804 5804 5804 5804 5804 5804 5804 5804 5804 5804 5803 5803 5802 5802 5801 5800 5799 5798 5796 5795 5794 5793 5791 5790 5788 5786 5785 5783 5781 5779 5777 5775 5773 5771 5768 5766 5763 5760 5758 5756 5753 5751 5749 5746 5744 5742 5740 5737 5735 5732 5729 5726 5724